Regional Weather Roundup
Issued by NWS Goodland, KS

Current Version | Previous Version | Text Only | Print | Product List | Glossary On
Versions: 1 2 3 4 5 6 7 8 9 10 11 12 13 14 15 16 17 18 19 20 21 22 23 24 25 26 27 28 29 30 31 32 33 34 35 36 37 38 39 40 41 42 43 44 45 46 47 48 49 50
000
ASUS43 KGLD 210908
RWRGLD

GOODLAND FORECAST AREA HOURLY WEATHER ROUNDUP
NATIONAL WEATHER SERVICE GOODLAND KS
300 AM MDT SUN SEP 21 2014

...OFFICIAL OBSERVATIONS...

CITY           SKY/WX    TMP DP  RH WIND       PRES   REMARKS
GOODLAND KS    PTCLDY    53  47  79 N3        30.28S
HILL CITY KS   PTCLDY    56  48  74 N7        30.21R
IMPERIAL NEB   MOCLDY    55  45  68 NW5       30.28S
MCCOOK NEB     CLEAR     52  46  80 NW7       30.24S
AKRON CO       PTCLDY    53  44  71 SE9       30.33F
BURLINGTON CO  PTCLDY    53  46  77 NE8       30.30S
LIMON CO       CLOUDY    57  46  66 E12       30.35S
$$

...UNOFFICIAL OBSERVATIONS...

CITY           SKY/WX    TMP DP  RH WIND       PRES   REMARKS
COLBY KS       CLEAR     55  52  88 N8        30.26S
GOVE KS          N/A     61  32  33 MISG        N/A
NORTON KS      CLEAR     54  43  66 NW7       30.21
SHARON SPRINGS   N/A     56  49  79 NE5         N/A
WAKEENEY KS      N/A     59  47  63 MISG        N/A
TRENTON NEB      N/A     53  32  45 N8          N/A
KIT CARSON CO    N/A     59  46  61 CALM        N/A
YUMA CO          N/A     52  44  75 CALM        N/A
$$



USA.gov is the U.S. government's official web portal to all federal, state and local government web resources and services.